TimeEST,TemperatureF,Dew PointF,Humidity,Sea Level PressureIn,VisibilityMPH,Wind Direction,Wind SpeedMPH,Gust SpeedMPH,PrecipitationIn,Events,Conditions,WindDirDegrees,DateUTC
12:54 AM,32.0,19.0,59,30.32,-9999.0,NNW,5.8,-,N/A,,Clear,340,2012-12-31 05:54:00
1:54 AM,30.9,18.0,59,30.33,-9999.0,NW,3.5,-,N/A,,Clear,320,2012-12-31 06:54:00
2:54 AM,28.9,18.0,64,30.34,-9999.0,WSW,3.5,-,N/A,,Clear,250,2012-12-31 07:54:00
3:54 AM,28.0,18.0,66,30.31,-9999.0,West,3.5,-,N/A,,Clear,270,2012-12-31 08:54:00
4:54 AM,27.0,18.0,69,30.30,-9999.0,West,4.6,-,N/A,,Clear,270,2012-12-31 09:54:00
5:54 AM,28.0,18.0,66,30.32,-9999.0,West,3.5,-,N/A,,Clear,280,2012-12-31 10:54:00
6:54 AM,26.6,17.6,69,30.32,-9999.0,West,3.5,-,N/A,,Clear,270,2012-12-31 11:54:00
7:54 AM,27.0,19.0,72,30.29,-9999.0,Calm,Calm,-,N/A,,Clear,0,2012-12-31 12:54:00
8:54 AM,34.0,23.0,64,30.29,-9999.0,SW,4.6,-,N/A,,Overcast,230,2012-12-31 13:54:00
9:54 AM,37.9,24.1,57,30.30,-9999.0,WSW,9.2,-,N/A,,Clear,240,2012-12-31 14:54:00
10:54 AM,42.1,24.1,49,30.27,-9999.0,WSW,6.9,-,N/A,,Mostly Cloudy,240,2012-12-31 15:54:00
11:54 AM,45.0,24.1,44,30.23,-9999.0,SW,6.9,-,N/A,,Mostly Cloudy,220,2012-12-31 16:54:00
12:54 PM,46.0,24.1,42,30.18,-9999.0,West,8.1,-,N/A,,Mostly Cloudy,260,2012-12-31 17:54:00
1:54 PM,46.0,28.0,50,30.14,-9999.0,SSW,5.8,-,N/A,,Overcast,200,2012-12-31 18:54:00
2:54 PM,46.0,19.0,34,30.14,-9999.0,West,8.1,-,N/A,,Mostly Cloudy,280,2012-12-31 19:54:00
3:54 PM,44.1,21.9,42,30.15,-9999.0,West,9.2,-,N/A,,Overcast,270,2012-12-31 20:54:00
4:54 PM,43.0,24.1,47,30.13,-9999.0,West,8.1,-,N/A,,Partly Cloudy,260,2012-12-31 21:54:00
5:54 PM,43.0,25.0,49,30.11,-9999.0,West,5.8,-,N/A,,Overcast,270,2012-12-31 22:54:00
6:54 PM,43.0,25.0,49,30.12,-9999.0,WSW,6.9,-,N/A,,Partly Cloudy,240,2012-12-31 23:54:00
7:54 PM,44.1,25.0,47,30.10,-9999.0,WSW,6.9,-,N/A,,Overcast,250,2013-01-01 00:54:00
8:54 PM,44.1,25.0,47,30.06,-9999.0,WSW,9.2,-,N/A,,Overcast,250,2013-01-01 01:54:00
9:54 PM,46.4,23.0,40,30.07,-9999.0,West,9.2,-,N/A,,Partly Cloudy,280,2013-01-01 02:54:00
10:54 PM,46.0,25.0,44,30.05,-9999.0,West,9.2,16.1,N/A,,Scattered Clouds,260,2013-01-01 03:54:00
11:54 PM,46.0,27.0,47,30.03,-9999.0,West,9.2,-,N/A,,Clear,270,2013-01-01 04:54:00